(354) Eleonora
ephemeris date magn radius delta ra dec elong phase
Today27 Jul 202610.83.109 AU2.148 AU21h54m-12°14'157.2°7.3°
Opposition15 Aug 202610.33.112 AU2.099 AU21h40m-15°03'179.0°0.3°
(354) Eleonora - 2026-07-27
astro.vanbuitenen.nl


 
-1 year
-1 month
-1 day
Now
+1 day
+1 month
+1 year

The interactive orbit chart above shows the body's path through the solar system and its position at the given date. Green and blue lines are shown perpendicular to the ecliptic plane: Green if the path is above the ecliptic plane, blue if it is below. (Left-click and drag to rotate the view; Right-click and drag to move the view; Use scroll wheel to zoom in our out.)

The orbital elements of Eleonora are:

            e (Eccentricity)                : 0.1118861
            a (Semimajor axis)              : 2.8007731
            i (Inclination)                 : 18.36241
            Ω (Longitude of ascending node) : 140.20387
            ω (Argument of perihelion)      : 8.17864
            M (Mean anomaly)                : 158.40049
            Epoch                           : 2026 Jun 09

            L (Longitude of perihelion)     : 147.97129
            B (Latitude of perihelion)      : 2.56861
            P (Orbital period in years)     : 4.69            
        

The light curve chart below shows the estimated development of the minor planet's magnitude.


The all-sky chart below shows the path of the minor planet over the same period as the light curve. The current position is marked yellow.





The following chart shows the path of the minor planet in the next few days. The field of view is optimized for (~10x50) binoculars and finderscopes.




Ephemerides:
Date       Time       RA (2000)    DEC (2000)    delta   radius  elong  phase   PA    magn
2026-07-27 00:00 UT   21 54 03.2   -12 14 09     2.148    3.109  157.2    7.3   249   10.8 
2026-07-27 09:44 UT   21 53 48.2   -12 17 27     2.146    3.109  157.6    7.1   249   10.8 
2026-07-28 00:00 UT   21 53 25.9   -12 22 18     2.143    3.109  158.3    6.9   249   10.8 
2026-07-29 00:00 UT   21 52 47.8   -12 30 32     2.138    3.109  159.5    6.6   249   10.8 
2026-07-30 00:00 UT   21 52 08.9   -12 38 52     2.134    3.110  160.6    6.2   250   10.8 
2026-07-31 00:00 UT   21 51 29.2   -12 47 16     2.129    3.110  161.8    5.9   250   10.7 
2026-08-01 00:00 UT   21 50 48.8   -12 55 44     2.125    3.110  162.9    5.5   250   10.7 
2026-08-02 00:00 UT   21 50 07.6   -13 04 17     2.122    3.110  164.1    5.1   250   10.7 
2026-08-03 00:00 UT   21 49 25.8   -13 12 53     2.118    3.110  165.3    4.8   251   10.7 
2026-08-04 00:00 UT   21 48 43.4   -13 21 33     2.115    3.110  166.4    4.4   251   10.6 
2026-08-05 00:00 UT   21 48 00.4   -13 30 16     2.112    3.111  167.6    4.0   251   10.6 
2026-08-06 00:00 UT   21 47 16.8   -13 39 02     2.110    3.111  168.8    3.6   252   10.6 
2026-08-07 00:00 UT   21 46 32.7   -13 47 51     2.107    3.111  170.0    3.3   253   10.6 
2026-08-08 00:00 UT   21 45 48.1   -13 56 41     2.105    3.111  171.1    2.9   254   10.5 
2026-08-09 00:00 UT   21 45 03.2   -14 05 34     2.103    3.111  172.3    2.5   255   10.5 
2026-08-10 00:00 UT   21 44 17.8   -14 14 27     2.102    3.111  173.5    2.1   256   10.5 
2026-08-11 00:00 UT   21 43 32.1   -14 23 22     2.101    3.111  174.6    1.7   258   10.5 
2026-08-12 00:00 UT   21 42 46.1   -14 32 16     2.100    3.112  175.8    1.4   261   10.4 
2026-08-13 00:00 UT   21 41 59.9   -14 41 12     2.099    3.112  176.9    1.0   267   10.4 
2026-08-14 00:00 UT   21 41 13.5   -14 50 06     2.099    3.112  178.0    0.6   278   10.4 
2026-08-15 00:00 UT   21 40 27.0   -14 59 00     2.099    3.112  178.8    0.4   311   10.3 
2026-08-16 00:00 UT   21 39 40.4   -15 07 53     2.100    3.112  178.8    0.4    10   10.3 
2026-08-17 00:00 UT   21 38 53.8   -15 16 45     2.100    3.112  177.9    0.7    38   10.4 
2026-08-18 00:00 UT   21 38 07.2   -15 25 35     2.101    3.112  176.8    1.0    49   10.4 
2026-08-19 00:00 UT   21 37 20.6   -15 34 22     2.102    3.112  175.6    1.4    54   10.4 
2026-08-20 00:00 UT   21 36 34.2   -15 43 07     2.104    3.113  174.5    1.8    57   10.5 
2026-08-21 00:00 UT   21 35 47.9   -15 51 49     2.106    3.113  173.3    2.2    59   10.5 
2026-08-22 00:00 UT   21 35 01.9   -16 00 28     2.108    3.113  172.1    2.6    60   10.5 
2026-08-23 00:00 UT   21 34 16.1   -16 09 03     2.110    3.113  171.0    2.9    61   10.6 
2026-08-24 00:00 UT   21 33 30.7   -16 17 34     2.113    3.113  169.8    3.3    62   10.6 
2026-08-25 00:00 UT   21 32 45.6   -16 26 01     2.116    3.113  168.6    3.7    63   10.6 
2026-08-26 00:00 UT   21 32 00.9   -16 34 23     2.119    3.113  167.4    4.1    63   10.6 


    Terminology:
            
    delta:  distance between minor planet and earth in AU
    radius: distance between minor planet and sun in AU
    magn:   magnitude (brightness) estimate    
    ra:     right ascension in hours (24h = 360deg)
    dec:    declination in degrees
    elong:  elongation in degrees (angle sun-earth-minor planet)    
    phase:  phase angle in degrees (angle sun-minor planet-earth)        
    AU:     Astronomical Unit (mean distance between earth and sun: 149597870.7 km
    

Orbital elements provided by the MPC (Minor Planet Center).
Calculations by a modified version of AAPlus, a C# implementation of the AA+ project by PJ Naughter from the algorithms presented in the book "Astronomical Algorithms" by Jean Meeus.
NGC2000 dso catalog and star labels from VizieR as provided by the Strasbourg astronomical Data Center.
Tycho2 catalog from the ESO archive.